CW3518 Weather Reports


time (UTC)temp
C
wind
direction
speed
KPH
gust
KPH
rain 1hr
cm
rain 24hr
cm
rain mn
cm
humidity
%
barometer
mb
20260906100459 25 40 4.8 8.0 0.00 0.00 0.00 81 1013.3
20260906100029 25 42 6.4 8.0 0.00 0.00 0.00 81 1013.4
20260906095459 25 41 6.4 8.0 0.00 0.00 0.00 80 1013.4
20260906094959 25 52 8.0 9.7 0.00 0.00 0.00 80 1013.4
20260906092958 26 35 4.8 4.8 0.00 0.00 0.00 78 1013.2
20260906092458 26 22 4.8 4.8 0.00 0.00 0.00 78 1013.2
20260906091458 26 3 3.2 4.8 0.00 0.00 0.00 78 1013.2
20260906090959 26 326 1.6 4.8 0.00 0.00 0.00 77 1013.2
20260906090458 26 327 3.2 4.8 0.00 0.00 0.00 77 1013.2
20260906084458 26 220 4.8 4.8 0.00 0.00 0.00 75 1013.0
20260906083958 26 222 4.8 4.8 0.00 0.00 0.00 75 1013.0
20260906083458 26 219 3.2 4.8 0.00 0.00 0.00 75 1012.9
20260906082458 26 192 3.2 6.4 0.00 0.00 0.00 74 1012.8
20260906081959 26 186 4.8 6.4 0.00 0.00 0.00 74 1012.8
20260906081457 26 194 4.8 8.0 0.00 0.00 0.00 74 1012.8
20260906080957 26 195 4.8 8.0 0.00 0.00 0.00 74 1012.8
20260906080457 26 172 6.4 8.0 0.00 0.00 0.00 75 1012.8
20260906075957 26 180 6.4 8.0 0.00 0.00 0.00 75 1012.9
20260906075458 27 167 6.4 8.0 0.00 0.00 0.00 75 1013.0
20260906074457 27 182 6.4 8.0 0.00 0.00 0.00 74 1012.9
20260906073957 27 174 6.4 8.0 0.00 0.00 0.00 74 1012.9
20260906073457 27 164 8.0 8.0 0.00 0.00 0.00 73 1013.0
20260906072957 27 172 6.4 8.0 0.00 0.00 0.00 73 1013.1
20260906072457 27 162 8.0 8.0 0.00 0.00 0.00 72 1013.1
20260906071527 27 195 6.4 8.0 0.00 0.00 0.00 71 1013.2
20260906070957 27 184 6.4 8.0 0.00 0.00 0.00 71 1013.2
20260906065957 27 198 6.4 6.4 0.00 0.00 0.00 71 1013.2
20260906065457 27 201 6.4 8.0 0.00 0.00 0.00 72 1013.2
20260906064957 27 219 6.4 9.7 0.00 0.00 0.00 72 1013.2
20260906063956 27 235 9.7 11.3 0.00 0.00 0.00 71 1013.1
20260906063456 27 243 9.7 9.7 0.00 0.00 0.00 71 1013.1
20260906062956 27 232 8.0 9.7 0.00 0.00 0.00 70 1013.2
20260906062456 27 227 9.7 9.7 0.00 0.00 0.00 70 1013.2
20260906061956 27 226 6.4 6.4 0.00 0.00 0.00 69 1013.2
20260906061456 27 224 6.4 8.0 0.00 0.00 0.00 69 1013.2
20260906060956 27 224 4.8 9.7 0.00 0.00 0.00 69 1013.3
20260906060456 28 213 6.4 9.7 0.00 0.00 0.00 68 1013.2
20260906060026 28 205 8.0 9.7 0.00 0.00 0.00 68 1013.2
20260906054956 28 177 6.4 9.7 0.00 0.00 0.00 67 1013.2
20260906054456 28 181 8.0 9.7 0.00 0.00 0.00 67 1013.2
20260906054025 28 185 8.0 11.3 0.00 0.00 0.00 67 1013.2
20260906053526 28 186 8.0 11.3 0.00 0.00 0.00 67 1013.2
20260906053025 28 171 11.3 11.3 0.00 0.00 0.00 66 1013.3
20260906052026 28 185 8.0 9.7 0.00 0.00 0.00 65 1013.3
20260906051455 28 184 6.4 8.0 0.00 0.00 0.00 65 1013.3
20260906051026 28 186 8.0 8.0 0.00 0.00 0.00 65 1013.3
20260906050525 28 193 6.4 8.0 0.00 0.00 0.00 65 1013.2
20260906050026 28 194 8.0 9.7 0.00 0.00 0.00 64 1013.2
20260906045525 29 192 6.4 9.7 0.00 0.00 0.00 64 1013.2
20260906044955 29 196 8.0 9.7 0.00 0.00 0.00 64 1013.2
20260906044455 29 173 9.7 9.7 0.00 0.00 0.00 64 1013.3
20260906043455 29 177 8.0 8.0 0.00 0.00 0.00 63 1013.2
20260906042956 29 181 8.0 8.0 0.00 0.00 0.00 63 1013.2
20260906042455 30 180 8.0 8.0 0.00 0.00 0.00 62 1013.2
20260906041954 30 180 6.4 8.0 0.00 0.00 0.00 62 1013.2
20260906041455 30 184 4.8 9.7 0.00 0.00 0.00 62 1013.2
20260906040955 30 184 8.0 12.9 0.00 0.00 0.00 61 1013.2
20260906040454 30 173 8.0 12.9 0.00 0.00 0.00 61 1013.2
20260906040025 30 158 9.7 16.1 0.00 0.00 0.00 61 1013.2
20260906035525 30 171 12.9 16.1 0.00 0.00 0.00 60 1013.2
20260906035024 30 163 12.9 17.7 0.00 0.00 0.00 60 1013.2
20260906034455 30 170 16.1 17.7 0.00 0.00 0.00 59 1013.2
20260906034024 30 172 14.5 17.7 0.00 0.00 0.00 59 1013.2
20260906033524 30 168 17.7 17.7 0.00 0.00 0.00 59 1013.2
20260906033024 30 169 12.9 17.7 0.00 0.00 0.00 58 1013.2
20260906032454 30 158 14.5 19.3 0.00 0.00 0.00 58 1013.2
20260906032024 31 151 16.1 22.5 0.00 0.00 0.00 57 1013.2
20260906031525 31 153 16.1 22.5 0.00 0.00 0.00 57 1013.1
20260906030454 31 147 16.1 22.5 0.00 0.00 0.00 56 1013.0
20260906025524 31 150 16.1 20.9 0.00 0.00 0.00 54 1012.9
20260906024954 31 168 16.1 17.7 0.00 0.00 0.00 53 1012.9
20260906024454 31 155 12.9 17.7 0.00 0.00 0.00 51 1012.9
20260906023454 31 149 14.5 24.1 0.00 0.00 0.00 48 1012.7
20260906023024 32 152 8.0 11.3 0.00 0.00 0.00 46 1012.5
20260906022454 32 125 9.7 11.3 0.00 0.00 0.00 45 1012.4
20260906022024 32 128 11.3 12.9 0.00 0.00 0.00 45 1012.3
20260906021523 32 124 11.3 12.9 0.00 0.00 0.00 44 1012.2
20260906021023 32 124 8.0 11.3 0.00 0.00 0.00 44 1012.2
20260906020023 32 117 8.0 9.7 0.00 0.00 0.00 44 1012.1
20260906015523 32 125 8.0 9.7 0.00 0.00 0.00 44 1012.0
20260906015023 32 138 6.4 11.3 0.00 0.00 0.00 44 1012.0
20260906014523 33 121 9.7 11.3 0.00 0.00 0.00 43 1011.9
20260906014023 33 117 8.0 9.7 0.00 0.00 0.00 43 1011.9
20260906013523 33 114 9.7 9.7 0.00 0.00 0.00 43 1011.8
20260906013023 33 113 8.0 9.7 0.00 0.00 0.00 43 1011.8
20260906012523 33 113 8.0 9.7 0.00 0.00 0.00 43 1011.8
20260906011953 33 111 8.0 9.7 0.00 0.00 0.00 43 1011.7
20260906011452 33 112 8.0 9.7 0.00 0.00 0.00 43 1011.7
20260906011025 33 108 8.0 11.3 0.00 0.00 0.00 42 1011.7
20260906010454 33 111 8.0 11.3 0.00 0.00 0.00 42 1011.5
20260906005955 33 115 9.7 11.3 0.00 0.00 0.00 42 1011.5
20260906005454 33 115 8.0 8.0 0.00 0.00 0.00 42 1011.5
20260906004953 33 115 8.0 11.3 0.00 0.00 0.00 42 1011.5
20260906004454 33 122 9.7 14.5 0.00 0.00 0.00 41 1011.5
20260906003953 34 111 8.0 14.5 0.00 0.00 0.00 41 1011.5
20260906003524 34 124 6.4 12.9 0.00 0.00 0.00 40 1011.5
20260906002523 35 108 6.4 11.3 0.00 0.00 0.00 40 1011.4
20260906002022 35 128 6.4 14.5 0.00 0.00 0.00 39 1011.5
20260906001523 35 123 9.7 14.5 0.00 0.00 0.00 38 1011.4
20260906001022 35 123 11.3 17.7 0.00 0.00 0.00 38 1011.3
20260906000523 35 124 12.9 17.7 0.00 0.00 0.00 38 1011.3
20260905235522 35 120 11.3 17.7 0.00 0.00 0.00 38 1011.2
20260905235024 35 122 14.5 17.7 0.00 0.00 0.00 36 1011.2
20260905234452 35 126 12.9 14.5 0.00 0.00 0.00 36 1011.3
20260905233952 36 142 12.9 17.7 0.00 0.00 0.00 36 1011.2
20260905233452 36 151 8.0 17.7 0.00 0.00 0.00 35 1011.2
20260905232954 36 102 12.9 17.7 0.00 0.00 0.00 37 1011.1
20260905232523 35 116 8.0 19.3 0.00 0.00 0.00 37 1011.1
20260905231951 35 83 19.3 22.5 0.00 0.00 0.00 37 1011.2
20260905231452 35 103 22.5 22.5 0.00 0.00 0.00 36 1011.2
20260905230954 36 105 16.1 17.7 0.00 0.00 0.00 36 1011.2
20260905230451 36 99 11.3 20.9 0.00 0.00 0.00 35 1011.1
20260905225951 36 95 17.7 29.0 0.00 0.00 0.00 35 1011.2
20260905225451 36 112 14.5 29.0 0.00 0.00 0.00 35 1011.1
20260905225021 36 260 1.6 24.1 0.00 0.00 0.00 35 1011.1
20260905224521 36 176 6.4 24.1 0.00 0.00 0.00 35 1011.1
20260905223451 36 109 12.9 22.5 0.00 0.00 0.00 36 1011.2
20260905223021 36 135 12.9 22.5 0.00 0.00 0.00 35 1011.2
20260905222521 36 100 14.5 16.1 0.00 0.00 0.00 36 1011.2
20260905220951 36 193 4.8 16.1 0.00 0.00 0.00 37 1011.3
20260905220020 36 102 17.7 22.5 0.00 0.00 0.00 36 1011.3
20260905215520 35 198 3.2 22.5 0.00 0.00 0.00 37 1011.4
20260905215020 35 110 8.0 24.1 0.00 0.00 0.00 37 1011.4
20260905214520 36 148 17.7 24.1 0.00 0.00 0.00 37 1011.4
20260905213520 36 182 8.0 22.5 0.00 0.00 0.00 37 1011.5
20260905213020 35 115 12.9 22.5 0.00 0.00 0.00 38 1011.5
20260905211520 36 152 3.2 20.9 0.00 0.00 0.00 37 1011.7
20260905211019 35 312 8.0 20.9 0.00 0.00 0.00 38 1011.7
20260905210450 35 119 14.5 14.5 0.00 0.00 0.00 38 1011.8
20260905205519 35 137 11.3 19.3 0.00 0.00 0.00 39 1012.0
20260905205019 35 140 17.7 19.3 0.00 0.00 0.00 40 1012.1
20260905204519 35 112 12.9 22.5 0.00 0.00 0.00 40 1012.1
20260905204019 35 105 12.9 22.5 0.00 0.00 0.00 40 1012.2
20260905203519 35 136 11.3 16.1 0.00 0.00 0.00 38 1012.3
20260905202519 35 199 16.1 20.9 0.00 0.00 0.00 38 1012.4
20260905202020 36 165 17.7 19.3 0.00 0.00 0.00 38 1012.5
20260905201519 35 91 8.0 20.9 0.00 0.00 0.00 39 1012.6
20260905201019 35 135 6.4 20.9 0.00 0.00 0.00 40 1012.7
20260905200519 35 170 11.3 20.9 0.00 0.00 0.00 40 1012.7
20260905200019 36 120 11.3 27.4 0.00 0.00 0.00 38 1012.8
20260905195519 35 145 4.8 27.4 0.00 0.00 0.00 39 1012.8
20260905195020 35 113 20.9 24.1 0.00 0.00 0.00 39 1012.8
20260905194518 36 110 12.9 24.1 0.00 0.00 0.00 39 1012.9
20260905193948 35 126 8.0 17.7 0.00 0.00 0.00 40 1013.1
20260905193519 35 160 8.0 17.7 0.00 0.00 0.00 41 1013.1
20260905193019 34 117 12.9 17.7 0.00 0.00 0.00 41 1013.2
20260905192518 35 132 9.7 19.3 0.00 0.00 0.00 41 1013.3
20260905192018 35 103 1.6 27.4 0.00 0.00 0.00 41 1013.3
20260905191449 35 133 19.3 27.4 0.00 0.00 0.00 41 1013.4
20260905191018 35 126 9.7 17.7 0.00 0.00 0.00 41 1013.5
20260905190448 35 225 17.7 17.7 0.00 0.00 0.00 42 1013.6
20260905190018 33 92 16.1 17.7 0.00 0.00 0.00 43 1013.6
20260905185518 34 139 3.2 24.1 0.00 0.00 0.00 42 1013.7
20260905185018 34 118 4.8 24.1 0.00 0.00 0.00 42 1013.9
20260905184518 35 110 14.5 20.9 0.00 0.00 0.00 42 1013.9
20260905184018 34 111 20.9 20.9 0.00 0.00 0.00 43 1014.0
20260905183518 33 90 11.3 17.7 0.00 0.00 0.00 44 1014.1
20260905183018 34 118 8.0 17.7 0.00 0.00 0.00 42 1014.2
20260905182518 35 125 14.5 22.5 0.00 0.00 0.00 41 1014.1
20260905182018 35 154 4.8 22.5 0.00 0.00 0.00 41 1014.2
20260905181518 35 114 14.5 25.7 0.00 0.00 0.00 40 1014.2
20260905181018 34 206 9.7 25.7 0.00 0.00 0.00 41 1014.3
20260905180517 34 129 6.4 25.7 0.00 0.00 0.00 41 1014.4
20260905175517 34 114 4.8 19.3 0.00 0.00 0.00 42 1014.5
20260905175017 34 121 8.0 17.7 0.00 0.00 0.00 41 1014.6
20260905174518 33 117 12.9 22.5 0.00 0.00 0.00 42 1014.7
20260905174018 33 242 3.2 22.5 0.00 0.00 0.00 44 1014.8
20260905173517 34 144 16.1 20.9 0.00 0.00 0.00 42 1014.7
20260905172518 33 122 19.3 20.9 0.00 0.00 0.00 45 1014.9
20260905172017 33 182 11.3 14.5 0.00 0.00 0.00 45 1014.9
20260905171517 33 188 6.4 16.1 0.00 0.00 0.00 46 1015.1
20260905171017 33 294 3.2 16.1 0.00 0.00 0.00 45 1015.0
20260905170517 33 79 9.7 14.5 0.00 0.00 0.00 46 1015.1
20260905170017 33 160 11.3 16.1 0.00 0.00 0.00 45 1015.0
20260905165517 32 222 9.7 20.9 0.00 0.00 0.00 47 1015.1
20260905165017 33 188 11.3 20.9 0.00 0.00 0.00 46 1015.1
20260905164017 33 124 4.8 20.9 0.00 0.00 0.00 46 1015.1
20260905163517 33 156 14.5 20.9 0.00 0.00 0.00 47 1015.0
20260905163017 32 330 6.4 14.5 0.00 0.00 0.00 48 1015.1
20260905162517 33 86 14.5 14.5 0.00 0.00 0.00 47 1015.1
20260905162017 33 89 4.8 11.3 0.00 0.00 0.00 49 1015.1
20260905161516 33 238 3.2 11.3 0.00 0.00 0.00 49 1015.2
20260905160017 31 311 4.8 14.5 0.00 0.00 0.00 54 1015.2
20260905155016 31 203 4.8 12.9 0.00 0.00 0.00 54 1015.3
20260905154516 31 153 8.0 14.5 0.00 0.00 0.00 55 1015.3
20260905154016 31 349 1.6 14.5 0.00 0.00 0.00 57 1015.3
20260905153516 31 263 3.2 11.3 0.00 0.00 0.00 57 1015.3
20260905153016 31 270 1.6 16.1 0.00 0.00 0.00 59 1015.3
20260905152516 30 237 11.3 16.1 0.00 0.00 0.00 59 1015.3
20260905152016 30 250 11.3 16.1 0.00 0.00 0.00 59 1015.3
20260905151016 30 221 11.3 14.5 0.00 0.00 0.00 61 1015.2
20260905150516 30 238 6.4 12.9 0.00 0.00 0.00 62 1015.2
20260905145516 30 266 6.4 14.5 0.00 0.03 0.00 64 1015.2
20260905145018 30 250 11.3 17.7 0.00 0.03 0.00 64 1015.2
20260905144515 30 228 6.4 19.3 0.00 0.05 0.00 65 1015.2
20260905144015 29 235 11.3 19.3 0.00 0.08 0.00 66 1015.1
20260905143016 29 248 14.5 17.7 0.00 0.08 0.00 67 1015.1
20260905142515 28 299 9.7 11.3 0.00 0.08 0.00 68 1015.1
20260905142015 28 243 11.3 16.1 0.00 0.08 0.00 69 1015.1
20260905141515 28 241 8.0 16.1 0.00 0.08 0.00 71 1015.1
20260905140515 28 195 9.7 12.9 0.00 0.08 0.00 72 1015.0
20260905140015 27 237 9.7 16.1 0.00 0.08 0.00 73 1015.0
20260905135515 27 229 8.0 16.1 0.00 0.08 0.00 75 1015.0
20260905135015 27 221 14.5 16.1 0.00 0.08 0.00 75 1015.0
20260905134515 27 219 11.3 11.3 0.00 0.08 0.00 76 1015.0
20260905134015 27 205 8.0 9.7 0.00 0.08 0.00 77 1015.0
20260905133515 27 196 6.4 9.7 0.00 0.08 0.00 77 1015.0
20260905132014 26 217 9.7 9.7 0.00 0.08 0.00 80 1014.9
20260905131514 26 202 6.4 6.4 0.00 0.08 0.00 80 1014.9
20260905131014 26 172 3.2 8.0 0.00 0.08 0.00 81 1014.9
20260905130514 25 135 4.8 8.0 0.00 0.08 0.00 82 1014.9
20260905130014 25 102 4.8 6.4 0.00 0.08 0.00 83 1014.8
20260905125514 25 68 4.8 6.4 0.00 0.08 0.00 83 1014.8
20260905125014 25 42 4.8 4.8 0.00 0.08 0.00 84 1014.8
20260905124514 25 7 4.8 4.8 0.00 0.08 0.00 84 1014.7
20260905123514 25 322 4.8 6.4 0.00 0.08 0.00 85 1014.6
20260905123014 24 262 6.4 6.4 0.00 0.08 0.00 86 1014.5
20260905122514 24 259 6.4 6.4 0.00 0.08 0.00 86 1014.4
20260905122014 25 259 4.8 8.0 0.00 0.08 0.00 85 1014.5
20260905121514 25 245 6.4 8.0 0.00 0.08 0.00 85 1014.4
20260905121014 25 233 8.0 8.0 0.00 0.08 0.00 85 1014.4
20260905120514 24 229 8.0 8.0 0.00 0.08 0.00 86 1014.4
20260905120014 24 241 6.4 8.0 0.00 0.08 0.00 85 1014.4
20260905115514 24 228 6.4 8.0 0.00 0.08 0.00 85 1014.3
20260905115014 24 228 8.0 9.7 0.00 0.08 0.00 85 1014.1
20260905114513 24 233 8.0 9.7 0.00 0.08 0.00 84 1014.1
20260905114013 25 228 8.0 9.7 0.00 0.08 0.00 84 1014.0
20260905113513 25 221 8.0 9.7 0.00 0.08 0.00 84 1014.0
20260905113013 25 225 9.7 9.7 0.00 0.08 0.00 84 1014.0
20260905112513 25 227 8.0 9.7 0.00 0.08 0.00 83 1014.0
20260905112013 25 206 8.0 9.7 0.00 0.08 0.00 83 1014.0
20260905111513 25 212 8.0 8.0 0.00 0.08 0.00 83 1014.1
20260905111013 25 216 6.4 8.0 0.00 0.08 0.00 83 1014.1
20260905110513 25 225 6.4 6.4 0.00 0.08 0.00 83 1014.2
20260905110013 25 235 6.4 6.4 0.00 0.08 0.00 82 1014.3
20260905105513 25 243 6.4 8.0 0.00 0.08 0.00 82 1014.2
20260905105013 25 241 4.8 8.0 0.00 0.08 0.00 81 1014.2
20260905104012 25 176 8.0 12.9 0.00 0.08 0.00 81 1014.0
20260905103512 25 172 9.7 12.9 0.00 0.08 0.00 81 1013.9
20260905103013 25 163 9.7 11.3 0.00 0.08 0.00 81 1013.9
20260905102512 25 167 8.0 11.3 0.00 0.08 0.00 81 1014.0
20260905102013 25 155 8.0 11.3 0.00 0.08 0.00 81 1014.0
20260905101512 25 148 9.7 11.3 0.00 0.08 0.00 81 1013.9
20260905101012 25 144 9.7 11.3 0.00 0.08 0.00 80 1013.9